Date,TemperatureHighF,TemperatureAvgF,TemperatureLowF,DewpointHighF,DewpointAvgF,DewpointLowF,HumidityHigh,HumidityAvg,HumidityLow,PressureMaxIn,PressureMinIn,WindSpeedMaxMPH,WindSpeedAvgMPH,GustSpeedMaxMPH,PrecipitationSumIn
2013-1-1,34,32,32,28,24,20,82,71,60,30.06,29.86,16,5,16,0.00
2013-1-2,32,32,32,29,28,24,90,84,72,30.24,30.04,21,5,21,0.00
2013-1-3,32,32,32,29,27,26,89,82,79,30.18,30.09,9,5,9,0.00
2013-1-4,33,32,32,26,25,23,75,72,70,30.03,29.91,29,13,29,0.00
2013-1-5,34,34,32,25,25,25,75,70,68,30.21,30.03,13,1,13,0.00
2013-1-6,38,36,35,32,32,30,89,84,75,30.08,29.89,15,6,15,0.00
2013-1-7,35,33,32,32,27,22,89,78,67,30.42,30.09,12,3,12,0.00
2013-1-8,40,35,32,29,26,22,88,71,58,30.34,30.20,13,2,13,0.00
2013-1-9,41,41,40,32,30,27,71,64,59,30.33,30.11,21,12,21,0.00
2013-1-10,42,36,32,32,30,28,88,77,60,30.56,30.33,18,2,18,0.00
2013-1-11,44,42,40,41,39,37,90,87,86,29.97,29.94,7,3,7,0.00
2013-1-12,57,54,44,50,48,40,88,81,75,30.00,29.95,10,3,10,0.00
2013-1-13,51,51,50,47,46,46,86,86,85,29.98,29.98,4,4,4,0.00
2013-1-14,34,32,32,26,23,22,73,68,64,30.40,30.27,26,5,26,0.00
2013-1-15,34,32,32,27,24,18,80,70,55,30.42,30.21,10,2,10,0.00
2013-1-16,39,35,32,30,27,23,82,72,61,30.21,29.79,17,6,17,0.00
2013-1-17,37,37,37,32,29,25,83,73,62,30.21,29.84,13,3,13,0.00
2013-1-18,37,34,32,29,21,17,75,58,45,30.45,30.06,21,6,21,0.00
2013-1-19,48,39,32,26,21,17,53,49,43,30.06,29.59,26,10,26,0.00
2013-1-20,48,32,32,27,21,15,80,63,42,30.08,29.59,34,15,34,0.01